Погода в Харлу

Россия / Республика Карелия     61°48′31″N   30°56′17″E
темп.,
°C
ветер,
м/с
пор.,
м/с
влажн.,
%
обл.,
%
осадки,
мм/ч
давл.,
гПа
погр.,
м
20 сентября, пн
пн2000:00+3всв4118210 0.0 1031334
03:00+2всв39875 0.0 1032229
06:00+2всв39915 0.0 1032284
09:00+4всв4107511 0.0 1032759
12:00+7всв5757100 0.0 10321306
15:00+9в575270 0.0 10301438
18:00+7всв586362 0.0 1030990
21:00+3всв3979100 0.0 1030294
21 сентября, вт
вт2100:00+4в3874100 0.0 1030323
03:00+3всв388298 0.0 1029316
06:00+2всв3108599 0.0 1028318
09:00+4всв49755 0.0 1027495
12:00+8в455698 0.0 10261020
15:00+9в3452100 0.0 10241172
18:00+8всв366586 0.0 1024404
21:00+4всв388399 0.0 1024204
22 сентября, ср
ср2200:00+3всв2687100 0.0 1025140
03:00+3св26855 0.0 1024156
06:00+1св27945 0.0 1024128
09:00+5всв36815 0.0 1025234
12:00+10в23585 0.0 1024841
15:00+11в23494 0.0 10221094
18:00+9св11654 0.0 102117
21:00+5в26841 0.0 1020144
23 сентября, чт
чт2300:00+4в22900 0.0 101948
03:00+3в23915 0.0 101757
06:00+2в23938 0.0 101476
09:00+6вюв2580100 0.0 1012230
12:00+7юв3784100 0.1 1010456
15:00+7юв4993100 0.4 1007671
18:00+8ююв51090100 0.4 10041005
21:00+8ююв61088100 1.0 1002931
24 сентября, пт
пт2400:00+8ююв61187100 0.6 10001017
03:00+7ююв71283100 1.0 9971125
06:00+7юв71384100 0.6 9951279
09:00+7юв81387100 1.1 9931211
12:00+7юв71291100 0.8 9921241
15:00+7юв71292100 2.9 9911243
18:00+7юв61092100 2.5 9911101
21:00+8юв51093100 3.4 990912